Provincetown, Massachusetts, United States (02657)
Lat: 42.06N, Lon: 70.18W
Wx Zone: MAZ022
Local Info
Past Weather Observations for Today

NOTE: This archive is for the closest National Weather Service station to Provincetown. Information may differ from the station used for current weather conditions.

Click here for Long-term Archive

Time Weather Temperature Dewpoint Humidity Pressure Winds Precip Visibility
22:56
Overcast
46°F / 8°C 43°F / 6°C 87% 29.83 in
(1010 mb)
NE 4.6 mph
(NE 7 kph)
- 10SM
22:37
Overcast
46°F / 8°C 43°F / 6°C 87% 29.83 in
(1010 mb)
NE 5.8 mph
(NE 9 kph)
- 10SM
21:56
Overcast
46°F / 8°C 43°F / 6°C 87% 29.86 in
(1011 mb)
NE 3.5 mph
(NE 6 kph)
- 10SM
20:56
Overcast
46°F / 8°C 43°F / 6°C 87% 29.86 in
(1011 mb)
NE 3.5 mph
(NE 6 kph)
- 10SM
20:47
Overcast
46°F / 8°C 43°F / 6°C 87% 29.86 in
(1011 mb)
NE 3.5 mph
(NE 6 kph)
- 10SM
20:17
Overcast
46°F / 8°C 43°F / 6°C 87% 29.83 in
(1010 mb)
ENE 6.9 mph
(ENE 11 kph)
- 10SM
19:56
Overcast
46°F / 8°C 43°F / 6°C 87% 29.86 in
(1011 mb)
NE 5.8 mph
(NE 9 kph)
- 10SM
18:56
Overcast
46°F / 8°C 43°F / 6°C 87% 29.83 in
(1010 mb)
NNE 5.8 mph
(NNE 9 kph)
- 10SM
17:56
Overcast
46°F / 8°C 43°F / 6°C 87% 29.83 in
(1010 mb)
NE 10.4 mph
(NE 17 kph)
- 10SM
16:56
Overcast
46°F / 8°C 45°F / 7°C 93% 29.83 in
(1010 mb)
NE 8.1 mph
(NE 13 kph)
- 10SM
15:56
Overcast
46°F / 8°C 45°F / 7°C 93% 29.83 in
(1010 mb)
NE 9.2 mph
(NE 15 kph)
- 10SM
14:56
Overcast
46°F / 8°C 45°F / 7°C 93% 29.83 in
(1010 mb)
NNE 9.2 mph
(NNE 15 kph)
0.00 in
(0.00 mm)
10SM
13:56
Overcast
Light Rain
48°F / 9°C 45°F / 7°C 87% 29.83 in
(1010 mb)
NE 9.2 mph
(NE 15 kph)
0.03 in
(0.76 mm)
8SM
12:56
Overcast
Light Rain
48°F / 9°C 46°F / 8°C 94% 29.86 in
(1011 mb)
NE 6.9 mph
(NE 11 kph)
0.06 in
(1.52 mm)
8SM
11:56
Overcast
Rain
48°F / 9°C 45°F / 7°C 87% 29.86 in
(1011 mb)
NE 6.9 mph
(NE 11 kph)
0.03 in
(0.76 mm)
6SM
10:56
Overcast
Light Rain
48°F / 9°C 45°F / 7°C 87% 29.89 in
(1012 mb)
NE 11.5 mph
(NE 19 kph)
0.04 in
(1.02 mm)
7SM
09:56
Overcast
Light Rain
48°F / 9°C 46°F / 8°C 94% 29.92 in
(1013 mb)
NE 4.6 mph
(NE 7 kph)
0.03 in
(0.76 mm)
7SM
08:56
Overcast
Light Rain
46°F / 8°C 45°F / 7°C 93% 29.92 in
(1013 mb)
NE 6.9 mph
(NE 11 kph)
0.07 in
(1.78 mm)
7SM
08:30
Overcast
Light Rain
46°F / 8°C 45°F / 7°C 93% 29.89 in
(1012 mb)
NNE 6.9 mph
(NNE 11 kph)
0.05 in
(1.27 mm)
5SM
07:56
Overcast
Rain
46°F / 8°C 45°F / 7°C 93% 29.89 in
(1012 mb)
NE 6.9 mph
(NE 11 kph)
0.07 in
(1.78 mm)
5SM
06:56
Overcast
Rain
46°F / 8°C 45°F / 7°C 93% 29.92 in
(1013 mb)
NE 6.9 mph
(NE 11 kph)
0.05 in
(1.27 mm)
5SM
06:20
Overcast
Light Rain
46°F / 8°C 45°F / 7°C 93% 29.92 in
(1013 mb)
Calm 0.01 in
(0.25 mm)
6SM
05:56
Overcast
Light Rain
46°F / 8°C 45°F / 7°C 93% 29.92 in
(1013 mb)
ENE 3.5 mph
(ENE 6 kph)
0.04 in
(1.02 mm)
10SM
04:56
Overcast
Light Rain
46°F / 8°C 43°F / 6°C 87% 29.92 in
(1013 mb)
Calm 0.00 in
(0.00 mm)
10SM
03:56
Overcast
46°F / 8°C 43°F / 6°C 87% 29.95 in
(1014 mb)
Calm - 10SM
02:56
Mostly Cloudy
46°F / 8°C 45°F / 7°C 93% 29.92 in
(1013 mb)
Calm - 10SM
02:53
Mostly Cloudy
46°F / 8°C 43°F / 6°C 87% 29.92 in
(1013 mb)
Calm - 10SM
02:42
Partly Cloudy
46°F / 8°C 43°F / 6°C 87% 29.89 in
(1012 mb)
Calm - 10SM
01:56
Clear
46°F / 8°C 43°F / 6°C 87% 29.92 in
(1013 mb)
Calm - 10SM
00:56
Partly Cloudy
45°F / 7°C 43°F / 6°C 93% 29.92 in
(1013 mb)
Calm - 10SM
Time Weather Temperature Dewpoint Humidity Pressure Winds Precip Visibility


Weather for websites

WeatherForYou.com, LLC is not responsible for any damages or problems caused by this service. Current weather conditions are obtained from the closest station including government and personal stations which may have varying degrees of accuracy. Weather forecasts are derived from the NOAA NDFD. Like all things, this site belongs to Jesus Christ... He just trusts us to maintain it. If you have any questions or comments email webmaster@weatherforyou.com

Copyright © 2016, WeatherForYou.com LLC. All rights reserved.